Location: Newark
(42.8481°N, 0.4872°E)
Time: 08:56:42
(UTC+00:00)

Transit 2A Rocket - Pass Details

Date: 01 November 2020
Orbit: 588 x 914 km, 66.7° (Epoch: 29 November)

Event Time Altitude Azimuth Distance (km) Brightness Sun altitude
Rises 18:21:07 0° 319° (NW) 3,221 8.8 -17.1°
Reaches altitude 10° 18:23:54 10° 308° (NW) 2,231 8.1 -17.6°
Maximum altitude 18:28:05 27° 252° (WSW) 1,316 7.0 -18.4°
Drops below altitude 10° 18:31:58 10° 194° (SSW) 2,052 7.4 -19.1°
Sets 18:34:26 0° 182° (S) 2,912 8.1 -19.6°
